Springfield, OH

7:43 PM EST on December 15, 2017 (GMT -0500)
Springfield-Beckley Municipal

Weather History for KSGH - October, 2012

Change the Weather History Date:

Thursday, October 18, 2012

  Actual Average (KFFO) Record (KFFO)
Temperature  
Mean Temperature 54 °F -  
Max Temperature 61 °F 61 °F 81 °F (2016)
Min Temperature 46 °F 40 °F 25 °F (2015)
Degree Days  
Heating Degree Days 12    
Growing Degree Days 4 (Base 50)    
Moisture  
Dew Point 39 °F    
Average Humidity 59    
Maximum Humidity 87    
Minimum Humidity 29    
Precipitation  
Precipitation 0.08 in - - ()
Sea Level Pressure  
Sea Level Pressure 29.62 in    
Wind  
Wind Speed 14 mph (SSW)    
Max Wind Speed 24 mph    
Max Gust Speed 33 mph    
Visibility 7 miles    
Events      
Averages and records for this station are not official NWS values.
T = Trace of Precipitation, MM = Missing Value Source: NWS Daily Summary

Daily Weather History Graph

Daily Weather History Graph

Search for Another Location

Airport or City:

Trip Planner

Search our weather history database for the weather conditions in past years. The results will help you decide how hot, cold, wet, or windy it might be!

Date:

Astronomy

Oct. 18, 2012 Rise Set
Actual Time 7:49 AM EDT 6:50 PM EDT
Civil Twilight 7:21 AM EDT 7:18 PM EDT
Nautical Twilight 6:50 AM EDT 7:49 PM EDT
Astronomical Twilight 6:19 AM EDT 8:20 PM EDT
Moon 11:29 AM EDT (10/18) 9:24 PM EDT (10/18)
Length of Visible Light 11h 56m
Length of Day
11h 01m
Waxing Crescent, 14% of the Moon is Illuminated
Oct 18
Waxing Crescent
Oct 21
First Quarter
Oct 29
Full
Nov 6
Last Quarter
Nov 13
New

Hourly Weather History & Observations

Time (EDT) Temp. Dew Point Humidity Pressure Visibility Wind Dir Wind Speed Gust Speed Precip Events Conditions
12:56 AM 56.8 °F 43.0 °F 60% 29.59 in 8.0 mi SSE 12.7 mph - N/A   Clear
1:56 AM 57.9 °F 41.9 °F 55% 29.55 in 8.0 mi SSE 10.4 mph - N/A   Clear
2:56 AM 59.9 °F 41.0 °F 50% 29.56 in 8.0 mi South 10.4 mph - N/A   Scattered Clouds
3:56 AM 61.0 °F 41.0 °F 48% 29.53 in 9.0 mi South 13.8 mph - N/A   Overcast
4:56 AM 59.9 °F 41.9 °F 51% 29.51 in 8.0 mi South 11.5 mph 20.7 mph N/A   Mostly Cloudy
5:56 AM 57.9 °F 46.9 °F 67% 29.51 in 7.0 mi South 20.7 mph 29.9 mph N/A   Scattered Clouds
6:56 AM 54.9 °F 47.8 °F 77% 29.52 in 8.0 mi South 9.2 mph - N/A   Scattered Clouds
7:56 AM 54.9 °F 46.9 °F 75% 29.52 in 9.0 mi South 20.7 mph 26.5 mph N/A   Overcast
8:09 AM 53.6 °F 48.2 °F 82% 29.54 in 3.0 mi SSW 16.1 mph 24.2 mph 0.02 in   Haze
8:44 AM 50.0 °F 46.4 °F 87% 29.58 in 5.0 mi WSW 19.6 mph 27.6 mph 0.03 in   Overcast
8:56 AM 48.9 °F 45.0 °F 86% 29.59 in 3.0 mi WSW 16.1 mph 23.0 mph 0.05 in   Mostly Cloudy
9:02 AM 48.2 °F 44.6 °F 87% 29.60 in 2.5 mi WSW 13.8 mph 23.0 mph 0.02 in   Mostly Cloudy
9:13 AM 48.2 °F 44.6 °F 87% 29.61 in 3.0 mi WSW 12.7 mph - 0.03 in   Overcast
9:56 AM 50.0 °F 45.0 °F 83% 29.62 in 7.0 mi WSW 15.0 mph - 0.03 in   Mostly Cloudy
10:42 AM 51.8 °F 44.6 °F 76% 29.64 in 8.0 mi SW 17.3 mph - N/A   Scattered Clouds
10:56 AM 50.9 °F 43.0 °F 74% 29.65 in 7.0 mi WSW 21.9 mph - N/A   Clear
11:56 AM 52.9 °F 37.9 °F 57% 29.68 in 7.0 mi WSW 24.2 mph 33.4 mph N/A   Clear
12:56 PM 56.8 °F 36.0 °F 46% 29.68 in 7.0 mi WSW 17.3 mph 25.3 mph N/A   Clear
1:56 PM 59.0 °F 32.9 °F 37% 29.65 in 7.0 mi West 12.7 mph 23.0 mph N/A   Clear
2:56 PM 61.0 °F 30.0 °F 31% 29.66 in 6.0 mi WSW 17.3 mph 25.3 mph N/A   Haze
3:56 PM 61.0 °F 28.0 °F 29% 29.65 in 6.0 mi SW 19.6 mph 26.5 mph N/A   Haze
4:56 PM 61.0 °F 28.0 °F 29% 29.65 in 6.0 mi SW 20.7 mph 27.6 mph N/A   Haze
5:56 PM 59.0 °F 27.1 °F 30% 29.68 in 6.0 mi SW 21.9 mph 27.6 mph N/A   Haze
6:56 PM 52.9 °F 30.0 °F 42% 29.71 in 6.0 mi WSW 13.8 mph - N/A   Haze
7:56 PM 50.0 °F 31.1 °F 48% 29.72 in 8.0 mi South 5.8 mph - N/A   Clear
8:56 PM 46.9 °F 31.1 °F 54% 29.73 in 8.0 mi SSE 5.8 mph - N/A   Clear
9:56 PM 47.8 °F 32.0 °F 54% 29.73 in 8.0 mi SSE 9.2 mph - N/A   Clear
10:56 PM 47.8 °F 31.1 °F 52% 29.72 in 8.0 mi SSE 9.2 mph - N/A   Partly Cloudy
11:56 PM 46.9 °F 31.1 °F 54% 29.70 in 8.0 mi SSE 12.7 mph - N/A   Mostly Cloudy